Woodinville, Washington, United States (98072)
Lat: 47.75N, Lon: 122.16W
Wx Zone: WAZ505
Local Info
Past Weather Observations for Yesterday

NOTE: This archive is for the closest National Weather Service station to Woodinville. Information may differ from the station used for current weather conditions.

Click here for Long-term Archive

Time Weather Temperature Dewpoint Humidity Pressure Winds Precip Visibility
23:56
Mostly Cloudy
Fog And Mist
41°F / 5°C 39°F / 4°C 93% 30.39 in
(1029 mb)
N 3.5 mph
(N 6 kph)
- 2SM
23:53
Partly Cloudy
Fog And Mist
41°F / 5°C 39°F / 4°C 93% 30.39 in
(1029 mb)
N 3.5 mph
(N 6 kph)
- 4SM
22:53
Overcast
45°F / 7°C 41°F / 5°C 87% 30.36 in
(1028 mb)
NE 3.5 mph
(NE 6 kph)
- 10SM
21:53
Partly Cloudy
41°F / 5°C 37°F / 3°C 87% 30.36 in
(1028 mb)
Calm - 10SM
20:53
Clear
45°F / 7°C 39°F / 4°C 81% 30.36 in
(1028 mb)
Calm - 10SM
19:53
Clear
45°F / 7°C 39°F / 4°C 81% 30.36 in
(1028 mb)
NE 4.6 mph
(NE 7 kph)
- 10SM
18:53
Clear
45°F / 7°C 39°F / 4°C 81% 30.36 in
(1028 mb)
NNE 3.5 mph
(NNE 6 kph)
- 10SM
17:53
Clear
45°F / 7°C 39°F / 4°C 81% 30.36 in
(1028 mb)
Calm - 10SM
16:53
Clear
48°F / 9°C 41°F / 5°C 76% 30.36 in
(1028 mb)
Calm - 10SM
15:53
Partly Cloudy
50°F / 10°C 43°F / 6°C 76% 30.36 in
(1028 mb)
NW 3.5 mph
(NW 6 kph)
- 10SM
14:53
Partly Cloudy
48°F / 9°C 43°F / 6°C 82% 30.36 in
(1028 mb)
Calm - 10SM
13:53
Partly Cloudy
50°F / 10°C 43°F / 6°C 76% 30.36 in
(1028 mb)
Variable 4.6 mph
(Variable 7 kph)
- 10SM
13:08
Partly Cloudy
52°F / 11°C 41°F / 5°C 67% 30.39 in
(1029 mb)
N 3.5 mph
(N 6 kph)
- 10SM
12:53
Mostly Cloudy
52°F / 11°C 43°F / 6°C 72% 30.39 in
(1029 mb)
NE 3.5 mph
(NE 6 kph)
- 10SM
12:25
Overcast
50°F / 10°C 41°F / 5°C 71% 30.39 in
(1029 mb)
NNW 3.5 mph
(NNW 6 kph)
- 10SM
11:53
Overcast
50°F / 10°C 43°F / 6°C 76% 30.39 in
(1029 mb)
N 4.6 mph
(N 7 kph)
- 10SM
10:53
Overcast
48°F / 9°C 43°F / 6°C 82% 30.39 in
(1029 mb)
N 3.5 mph
(N 6 kph)
- 10SM
09:53
Overcast
46°F / 8°C 43°F / 6°C 87% 30.39 in
(1029 mb)
Calm - 10SM
09:49
Overcast
46°F / 8°C 43°F / 6°C 87% 30.39 in
(1029 mb)
Calm - 10SM
08:53
Overcast
45°F / 7°C 41°F / 5°C 87% 30.36 in
(1028 mb)
Calm - 10SM
08:23
Mostly Cloudy
43°F / 6°C 39°F / 4°C 87% 30.36 in
(1028 mb)
Calm - 9SM
07:53
Partly Cloudy
43°F / 6°C 39°F / 4°C 87% 30.36 in
(1028 mb)
Calm - 9SM
07:30
Mostly Cloudy
45°F / 7°C 39°F / 4°C 81% 30.36 in
(1028 mb)
Calm - 10SM
06:53
Overcast
45°F / 7°C 39°F / 4°C 81% 30.36 in
(1028 mb)
Calm - 10SM
05:53
Overcast
45°F / 7°C 39°F / 4°C 81% 30.36 in
(1028 mb)
ENE 3.5 mph
(ENE 6 kph)
- 10SM
04:53
Overcast
45°F / 7°C 39°F / 4°C 81% 30.33 in
(1027 mb)
ENE 4.6 mph
(ENE 7 kph)
- 10SM
03:53
Overcast
45°F / 7°C 39°F / 4°C 81% 30.33 in
(1027 mb)
ENE 3.5 mph
(ENE 6 kph)
- 10SM
02:53
Overcast
45°F / 7°C 39°F / 4°C 81% 30.33 in
(1027 mb)
NE 3.5 mph
(NE 6 kph)
- 10SM
01:53
Overcast
45°F / 7°C 39°F / 4°C 81% 30.33 in
(1027 mb)
NNW 3.5 mph
(NNW 6 kph)
- 10SM
00:53
Overcast
45°F / 7°C 39°F / 4°C 81% 30.3 in
(1026 mb)
Variable 4.6 mph
(Variable 7 kph)
- 10SM
Time Weather Temperature Dewpoint Humidity Pressure Winds Precip Visibility


Weather for websites

WeatherForYou.com, LLC is not responsible for any damages or problems caused by this service. Current weather conditions are obtained from the closest station including government and personal stations which may have varying degrees of accuracy. Weather forecasts are derived from the NOAA NDFD. Like all things, this site belongs to Jesus Christ... He just trusts me to maintain it. If you have any questions or comments email webmaster@weatherforyou.com

Copyright © 2015, WeatherForYou.com LLC. All rights reserved.